ראשי / חיפושים אחרונים

חיפושים אחרונים

לוחית
סוג רכב
דגם
שנה
תאריך חיפוש
שעת חיפוש
5809865 מזדה יפן MAZDA 2 2008 02/09/2026 23:14:51
24524704 סקודה צ'כיה OCTAVIA FL 2025 02/09/2026 23:14:51
65859801 גולדן דרגון סי - 2019 02/09/2026 23:14:50
46561702 יונדאי קוריאה הדרומית ELANTRA 2021 02/09/2026 23:14:49
1113433 פיאט טורקיה DOBLO 1.6 COMBY 2015 02/09/2026 23:14:48
7523412 סיטרואן ספרד BERLINGO 2013 02/09/2026 23:14:47
6609375 פורד גרמניה FOCUS 2012 02/09/2026 23:14:46
38722604 יוטונג סין - 2025 02/09/2026 23:14:46
60963801 מזדה תאילנד MAZDA 2 2020 02/09/2026 23:14:44
32956604 ב מ וו גרמניה M5 2025 02/09/2026 23:14:40
39757604 דאף אנגליה - 2026 02/09/2026 23:14:39
3334350 ניסאן אנגליה ALMERA 2003 02/09/2026 23:14:36
5556181 מיצובישי תאילנד SPACE STAR 2017 02/09/2026 23:14:34
8135759 פולקסווגן גרמניה PASSAT 2006 02/09/2026 23:14:33
46199303 טויוטה יפן LAND CRUISER 2023 02/09/2026 23:14:32
9446374 טויוטה יפן PRIUS HYBRID 2011 02/09/2026 23:14:30
10825803 סוזוקי הונגריה VITARA 2022 02/09/2026 23:14:28
5803932 טויוטה יפן LAND CRUISER 2015 02/09/2026 23:14:28
79882101 מ א ן גרמניה - 2019 02/09/2026 23:14:28
34114801 מזדה יפן MAZDA 3 2018 02/09/2026 23:14:26
3445889 מרצדס בנץ גרמנ - 2017 02/09/2026 23:14:25
1043679 אלפא רומיאו איטליה ALFA MITO 2011 02/09/2026 23:14:25
3740666 יונדאי טורקיה MATRIX 2008 02/09/2026 23:14:24
4654162 רנו טורקיה CLIO 3 2007 02/09/2026 23:14:23
1099037 טויוטה טורקיה COROLLA 2016 02/09/2026 23:14:22
73581601 יונדאי קוריאה הדרומית IONIQ HYBRID 2019 02/09/2026 23:14:20
28675504 סקודה צ'כיה OCTAVIA FL 2025 02/09/2026 23:14:18
6430066 מרצדס גרמניה S300 LONG 2011 02/09/2026 23:14:17
6827054 ב מ וו גרמניה 116I 2015 02/09/2026 23:14:16
8524671 טויוטה יפן COROLLA 2010 02/09/2026 23:14:11
8568931 ניסאן בריטניה JUKE 2014 02/09/2026 23:14:11
6992976 סיאט ספרד IBIZA 2012 02/09/2026 23:14:10
91503501 מרצדס גרמניה C200CDI 2014 02/09/2026 23:14:10
83007603 בי ווי די סין BYD DOLPHIN 2024 02/09/2026 23:14:10
5153457 הונדה יפן ACCORD 2004 02/09/2026 23:14:08
25812801 סקודה צ'כיה NEW OCTAVIA 2017 02/09/2026 23:14:08
7676674 קיה קוריאה הדרומית SORENTO 2011 02/09/2026 23:14:06
1460537 טויוטה יפן SPACE VERSO 2016 02/09/2026 23:14:06
43180501 קיה קוריאה הדרומית PICANTO 2019 02/09/2026 23:14:05
23926001 וולבו בלגיה - 2018 02/09/2026 23:14:04
2009772 דייהטסו יפן SIRION 2010 02/09/2026 23:14:02
11169801 טויוטה טורקיה COROLLA 2017 02/09/2026 23:14:02
12307503 מאן אוסטריה - 2023 02/09/2026 23:14:01
4229655 פורד גרמניה FOCUS 2017 02/09/2026 23:14:00
4748059 מזדה יפן MAZDA 6 2005 02/09/2026 23:13:58
23105503 אאודי גרמניה A3 SPORTBACK 2022 02/09/2026 23:13:57
5734270 הונדה יפן FR-V 2009 02/09/2026 23:13:56
64566302 מזדה יפן MAZDA 3 2021 02/09/2026 23:13:48
4875311 יונדאי טורקיה I20 2013 02/09/2026 23:13:44
76284001 טויוטה טורקיה COROLLA HSD SDN 2019 02/09/2026 23:13:40
12556302 אאודי בלגיה ETRON 2020 02/09/2026 23:13:39
2217467 סיאט ספרד LEON 2009 02/09/2026 23:13:38
47809202 קואנג יאנג טיו - 2022 02/09/2026 23:13:37
6927960 ארקטקו ארה"ב - 2008 02/09/2026 23:13:35
63964804 אומודה סין OMODA 7 PHEV 2026 02/09/2026 23:13:34
78253702 יונדאי קוריאה הדרומית VENUE 2022 02/09/2026 23:13:33
93125401 אס אף קיי - 2023 02/09/2026 23:13:26
5803932 טויוטה יפן LAND CRUISER 2015 02/09/2026 23:13:26
7503053 פולקסווגן מקסיקה JETTA 2015 02/09/2026 23:13:24
18542304 טסלה סין MODEL 3 2025 02/09/2026 23:13:23
1170168 סוזוקי יפן SWIFT 2009 02/09/2026 23:13:22
6287131 הונדה בריטניה CIVIC TOURER 2015 02/09/2026 23:13:22
80766703 מאן פולין - 2024 02/09/2026 23:13:21
27275104 ב מ וו גרמניה M8 COMPETITION 2025 02/09/2026 23:13:17
6796813 סיטרואן צרפת C4 2012 02/09/2026 23:13:16
1010738 סוזוקי הונגריה SX4 CROSSOVER 2016 02/09/2026 23:13:15
8870031 ניסאן יפן INFINITI Q50 2015 02/09/2026 23:13:14
25983802 קיה קוריאה הדרומית SORENTO 2021 02/09/2026 23:13:13
51019803 ב מ וו ארהב" X6 XDRIVE30D 2023 02/09/2026 23:13:08
56917904 צ'רי סין TIGGO7 PRO PHEV 2026 02/09/2026 23:13:07
5631373 אאודי בלגיה A1 2011 02/09/2026 23:13:06
2404151 פולקסווגן גרמניה GOLF 2004 02/09/2026 23:13:04
6802610 יונדאי קוריאה הדרומית GALLOPER 2001 02/09/2026 23:13:04
86342203 טויוטה יפן RAV4 HYBRID 2024 02/09/2026 23:13:02
9120187 סיטרואן ספרד C4 CACTUS 2017 02/09/2026 23:13:02
37093302 ב מ וו גרמניה 330E 2020 02/09/2026 23:13:01
37093302 ב מ וו גרמניה 330E 2020 02/09/2026 23:13:01
9820975 המרכב מפעלי מת - 2014 02/09/2026 23:13:00
41009601 קיה קוריאה הדרומית OPTIMA HEV 2018 02/09/2026 23:12:59
58776602 אאודי ספרד A1 SPORTBACK 2021 02/09/2026 23:12:58
27275104 ב מ וו גרמניה M8 COMPETITION 2025 02/09/2026 23:12:58
8258767 הונדה יפן FR-V 2008 02/09/2026 23:12:58
7061075 רנו צרפת SCENIC 2011 02/09/2026 23:12:57
1154179 פיאט טורקיה FIORINO 1.3 2011 02/09/2026 23:12:54
4285960 יונדאי קוריאה הדרומית ELANTRA 2006 02/09/2026 23:12:52
60247802 סיאט ספרד IBIZA 2021 02/09/2026 23:12:51
60276901 מזדה יפן MAZDA 6 2019 02/09/2026 23:12:48
47858002 קואנג יאנג טיו - 2022 02/09/2026 23:12:48
3289959 יונדאי קוריאה הדרומית ELANTRA 2005 02/09/2026 23:12:46
1413368 סוזוקי יפן SX4 2009 02/09/2026 23:12:44
1563087 הונדה יפן JAZZ 2017 02/09/2026 23:12:42
2101576 מזדה יפן MAZDA 5 2013 02/09/2026 23:12:40
76284001 טויוטה טורקיה COROLLA HSD SDN 2019 02/09/2026 23:12:39
8703939 יונדאי צ'כיה TUCSON 2016 02/09/2026 23:12:39
1414154 דימלרקריזלר-גר - 2014 02/09/2026 23:12:37
73027001 מרצדס גרמניה E300E 2019 02/09/2026 23:12:36
1235176 פורד גרמניה FOCUS 2013 02/09/2026 23:12:36
62243902 מיצובישי תאילנד L200 2021 02/09/2026 23:12:35
1276767 אלפא רומיאו איטליה ALFA BRERA 3,2 2009 02/09/2026 23:12:35
9418813 שברולט קוריאה הדרומית CAPTIVA 2012 02/09/2026 23:12:34
60134602 סיאט ספרד IBIZA 2021 02/09/2026 23:12:33
5754065 מזדה יפן MAZDA3 2008 02/09/2026 23:12:33
7636054 ב מ וו בריטניה MINI COOPER 2015 02/09/2026 23:12:30
6441473 סקודה צ'כיה FABIA 2011 02/09/2026 23:12:28
9246971 קאדילאק ארהב" - 2010 02/09/2026 23:12:27
6458338 קיה קוריאה הדרומית SORENTO 2016 02/09/2026 23:12:26
22582902 טויוטה טורקיה COROLLA HSD SDN 2020 02/09/2026 23:12:26
83943602 סיאט ספרד CUPRA 2022 02/09/2026 23:12:24
4750038 סיאט צ'כיה TOLEDO 2016 02/09/2026 23:12:23
3330066 מיצובישי יפן LANCER 2008 02/09/2026 23:12:22
54445202 יונדאי קוריאה הדרומית SONATA HYBRID 2021 02/09/2026 23:12:20
23165703 סיאט ספרד CUPRA 2022 02/09/2026 23:12:18
45754404 אופל ספרד CORSA 2026 02/09/2026 23:12:17
1528228 קוואסאקי תאילנ - 2016 02/09/2026 23:12:16
8251786 טויוטה טורקיה C-HR HYBRID 2017 02/09/2026 23:12:15
4864838 סיאט ספרד IBIZA 2016 02/09/2026 23:12:14
40619503 סקודה צ'כיה OCTAVIA 2023 02/09/2026 23:12:12
1201171 פולקסווגן מקסיקה JETTA 2010 02/09/2026 23:12:11
7986761 סקודה צ'כיה ROOMSTER 2008 02/09/2026 23:12:08
2615576 מזדה יפן CX5 2013 02/09/2026 23:12:07
8694679 טויוטה יפן COROLLA 2013 02/09/2026 23:12:06
8832070 סקודה צ'כיה FABIA 2010 02/09/2026 23:12:06
83375601 טויוטה טורקיה COROLLA HSD SDN 2019 02/09/2026 23:12:04
1162033 פיאט פולין FIAT 500 1.2 2015 02/09/2026 23:12:02
7982086 טויוטה תאילנד HILUX 2017 02/09/2026 23:12:02
4185679 ניסאן הודו MICRA 2012 02/09/2026 23:12:02
6177135 רנו ספרד CLIO B 2002 02/09/2026 23:12:01
5933526 טויוטה יפן RAV 4 HYBRID 2023 02/09/2026 23:11:59
3317933 רנו טורקיה FLUENCE 2016 02/09/2026 23:11:59
1294766 שברולט קוריאה הדרומית AVEO 2009 02/09/2026 23:11:56
19858103 מרצדס בנץ גרמנ - 2023 02/09/2026 23:11:56
9328255 הונדה ארהב" - 1990 02/09/2026 23:11:54
30060602 שברולט מקסיקו BLAZER 2021 02/09/2026 23:11:53
6259954 שברולט ארהב" MALIBU LT 2014 02/09/2026 23:11:53
9880878 מסגרית אבו מוך - 2016 02/09/2026 23:11:52
1342860 טויוטה יפן COROLLA 2006 02/09/2026 23:11:52
1392764 איסוזו תאילנד PICK-UP 2008 02/09/2026 23:11:51
4578755 מזדה יפן CX-5 2017 02/09/2026 23:11:51
47751704 סקודה צ'כיה SUPERB 2026 02/09/2026 23:11:48
20945201 ניסאן יפן X-TRAIL 2018 02/09/2026 23:11:48
21488704 לקסוס יפן LEXUS LBX 2025 02/09/2026 23:11:46
11905802 רנו צרפת TRAFIC 2020 02/09/2026 23:11:45
42390702 רובר בריטניה RANGE R.SPORT 2022 02/09/2026 23:11:43
4185666 מיצובישי תאילנד L 200 2008 02/09/2026 23:11:43
2195630 ב מ וו גרמניה - 2016 02/09/2026 23:11:42
87439903 מ.ג סין MG4 2025 02/09/2026 23:11:42
52387403 בי ווי די סין BYD DOLPHIN 2023 02/09/2026 23:11:41
6266812 יונדאי הודו I10 2012 02/09/2026 23:11:41
3513956 טויוטה יפן LAND CRUISER 2004 02/09/2026 23:11:39
5798911 פיאט פולין FIAT 500 1.2 2013 02/09/2026 23:11:38
41405003 ג'יפ איטליה COMPASS PHEV 2023 02/09/2026 23:11:36
39974501 סיאט ספרד LEON CUPRA FL 2018 02/09/2026 23:11:32
11335603 מרצדס ארהב" GLE400D COUPE 2022 02/09/2026 23:11:32
1180163 הונדה יפן CIVIC 2007 02/09/2026 23:11:28
19139501 ניסאן בריטניה QASHQAI 2017 02/09/2026 23:11:26
36506404 יונדאי קוריאה הדרומית VENUE 2025 02/09/2026 23:11:25
8258767 הונדה יפן FR-V 2008 02/09/2026 23:11:24
58117603 רנו ספרד CAPTUR HYBRID 2023 02/09/2026 23:11:22
8258767 הונדה יפן FR-V 2008 02/09/2026 23:11:21
2102567 פולקסווגן מקסיקה JETTA 2009 02/09/2026 23:11:20
4189858 קיה קוריאה CARNIVAL 2005 02/09/2026 23:11:18
57744404 די אס איטליה DS N8 2026 02/09/2026 23:11:15
5491416 ב מ וו גרמניה 320D 2002 02/09/2026 23:11:15
39598804 צ'רי סין ARRIZO 8 PHEV 2025 02/09/2026 23:11:15
48831202 פיאג'ו איטליה - 2024 02/09/2026 23:11:13
63982502 סקודה צ'כיה SUPERB 2022 02/09/2026 23:11:11
1157067 פיאט פולין FIAT 500 1.2 2009 02/09/2026 23:11:10
2861465 ביואיק ארהב" LUCERNE 2008 02/09/2026 23:11:09
62847903 יונדאי טורקיה I10 2024 02/09/2026 23:11:09
4681531 יונדאי צ'כיה I30 2014 02/09/2026 23:11:09
6946854 ב מ וו גרמניה 320I 2015 02/09/2026 23:11:09
5625953 סיאט ספרד LEON 2014 02/09/2026 23:11:08
15279302 פולקסווגן ספרד POLO 2020 02/09/2026 23:11:06
71711001 איסוזו תאילנד PICK-UP 2019 02/09/2026 23:11:05
79719303 מרצדס ארהב" EQE350 PLUS SUV 2024 02/09/2026 23:11:04
61702103 ימהה צרפת - 2024 02/09/2026 23:11:03
92146601 סקודה צ'כיה OCTAVIA 2018 02/09/2026 23:11:03
50091901 מרצדס גרמניה GLC 350 E 2018 02/09/2026 23:11:01
41816403 סקיוול סין ET5 2023 02/09/2026 23:11:00
26281302 ימהה צרפת - 2020 02/09/2026 23:10:59
7468970 הונדה טורקיה CIVIC 2011 02/09/2026 23:10:58
77859003 יונדאי קוריאה הדרומית KONA HYBRID 2024 02/09/2026 23:10:57
66685401 סקודה צ'כיה SUPERB 2019 02/09/2026 23:10:56
27275104 ב מ וו גרמניה M8 COMPETITION 2025 02/09/2026 23:10:52
2751780 פולקסווגן גרמניה GOLF 2017 02/09/2026 23:10:51
90556601 דודג' קנדה - 2017 02/09/2026 23:10:51
11847904 מרצדס בנץ גרמנ - 2025 02/09/2026 23:10:50
4290262 מזדה יפן MAZDA 3 2007 02/09/2026 23:10:48
42447401 קיה סלובקיה SPORTAGE 2018 02/09/2026 23:10:45
3966654 אאודי הונגריה S3 2015 02/09/2026 23:10:43
40166001 איווקו איטליה - 2018 02/09/2026 23:10:42
49634701 איווקו איטליה - 2018 02/09/2026 23:10:40
1629323 סובארו יפן IMPREZA 1999 02/09/2026 23:10:38
8858181 טויוטה טורקיה COROLLA 2016 02/09/2026 23:10:38
1078163 איווקו איטליה - 2008 02/09/2026 23:10:38
1119950 טויוטה טורקיה COROLLA 2003 02/09/2026 23:10:34
67394101 הונדה איטליה - 2019 02/09/2026 23:10:33
1426114 רנו טורקיה MEGANE II 2006 02/09/2026 23:10:33
5651374 קרייזלר מכסיקו - 2011 02/09/2026 23:10:33
71065701 קיה קוריאה הדרומית STONIC 2020 02/09/2026 23:10:32
וואטסאפ